Regional Weather Roundup
Issued by NWS Wakefield, VA

Home | Current Version | Previous Version | Text Only | Print | Product List | Glossary Off
Versions: 1 2 3 4 5 6 7 8 9 10 11 12 13 14 15 16 17 18 19 20 21 22 23 24 25 26 27 28 29 30 31 32 33 34 35 36 37 38 39 40 41 42 43 44 45 46 47 48

000
ASUS41 KAKQ 301714
RWRAKQ
REGIONAL WEATHER ROUNDUP
NATIONAL WEATHER SERVICE WAKEFIELD VA
100 PM EDT MON MAR 30 2015

Note: "fair" indicates few or no clouds below 12,000 feet with no
significant weather and/or obstructions to visibility. * = Denotes
station may not report precipitation (e.g., rain,snow,etc.),
thunder or fog.

VAZ042-051-052>054-056-301800-
NORTHERN VIRGINIA

CITY           SKY/WX    TMP DP  RH WIND       PRES   REMARKS
WASH NATIONAL  CLOUDY    58  30  34 VRB6G17   29.91F
DULLES         PTSUNNY   56  32  40 W9G18     29.89F
FORT BELVOIR   CLOUDY    57  33  40 W12G18    29.91S
QUANTICO       CLOUDY    60  33  36 W15       29.90F
FREDERICKSBRG* CLOUDY    60  34  37 SW9       29.90S
STAFFORD*      CLOUDY    58  31  35 W9G16     29.94S
WARRENTON      CLOUDY    62  42  48 W9G16     29.90S
CULPEPER*      PTSUNNY   59  36  41 W12G17    29.90F
MANASSAS*      PTSUNNY   57  34  41 SW10G16   29.90F
LEESBURG*      PTSUNNY   57  32  38 W14G22    29.89F
WINCHESTER     MOSUNNY   55  18  22 NW18G28   29.90R
FRONT ROYAL*   FAIR      55  27  33 W14G22    29.89R
LURAY*         FAIR      59  30  33 W18G24    29.90S
$$

VAZ048-049-060>072-079>083-301800-
CENTRAL AND SOUTH CENTRAL VIRGINIA

CITY           SKY/WX    TMP DP  RH WIND       PRES   REMARKS
RICHMOND       PTSUNNY   58  33  39 W12       29.93F
CHESTERFIELD*  NOT AVBL
PETERSBURG*    PTSUNNY   57  35  43 SW10G16   29.96F
HANOVER        MOSUNNY   58  31  35 SW12      29.94F
TAPPAHANNOCK*  MOSUNNY   57  26  30 SW9       29.93F
QUINTON*       FAIR      54  34  47 W7G16     29.94F
CHARLOTTSVILLE PTSUNNY   58  32  37 W10G21    29.90F
GORDONSVILLE*  PTSUNNY   58  35  41 SW13G21   29.90F
ORANGE*        CLOUDY    61  36  39 SW13G22   29.91F
LOUISA*        CLOUDY    61  36  39 W10G17    29.90F
BUMPASS*       CLOUDY    57  33  41 W7G17     29.91F
FARMVILLE*     CLOUDY    59  37  42 W7G18     29.93F
CREWE*         FAIR      59  33  38 MISG      29.94F
FORT PICKETT*  FAIR      57  36  45 W7        29.95F
CHASE CITY*    FAIR      59  40  50 SW5       29.96F
CLARKSVILLE*   FAIR      54  41  62 W9G17     29.98F
SOUTH HILL*    MOSUNNY   51  40  66 SW13      30.04F
LAWRENCEVILLE* PTSUNNY   52  41  65 SW9G17    29.97F
EMPORIA*       CLOUDY    46  43  87 S9G16     30.01F
$$

VAZ088>098-301800-
SOUTHEAST VIRGINIA

CITY           SKY/WX    TMP DP  RH WIND       PRES   REMARKS
NORFOLK        CLOUDY    46  40  79 SW16G25   29.96F
VIRGINIA BEACH LGT RAIN  49  40  71 SW14      29.97F
NORFOLK NAVAL  NOT AVBL
WEST POINT*    CLOUDY    55  36  49 SW8       29.95F
SALUDA*        FAIR      50  36  59 SW8G23    29.92F
NEWPORT NEWS   NOT AVBL
LANGLEY AFB    CLOUDY    47  41  80 SW20G25   29.95F
FORT EUSTIS    PTSUNNY   47  40  77 VRB6      29.95F
WILLIAMSBURG*  CLOUDY    52  41  66 W9        29.97F
HR EXEC AP*    CLOUDY    45  39  81 SW10      30.00F
FRANKLIN*      CLOUDY    45  41  88 SW10      30.01S
WAKEFIELD      CLOUDY    48  40  73 VRB7      29.98F
$$

VAZ020-022-025-037-045-301800-
WEST CENTRAL AND SOUTHWEST VIRGINIA

CITY           SKY/WX    TMP DP  RH WIND       PRES   REMARKS
STAUNTON*      PTSUNNY   58  28  32 NW13G24   29.93S
WAYNESBORO*    PTSUNNY   54  30  39 W10G25    29.91S
HOT SPRINGS VA PTSUNNY   43  27  53 W22G30    29.90S
LYNCHBURG      PTSUNNY   57  37  47 W16G29    29.95F
DANVILLE       MOSUNNY   62  40  44 W16       29.97F
SOUTH BOSTON*  FAIR      60  35  39 W10       29.97F
MARTINSVILLE   CLOUDY    61  36  39 W7        30.01F
ROANOKE        PTSUNNY   57  31  37 NW20G37   29.98F
BLACKSBURG     PTSUNNY   51  33  50 NW15G24   30.01S
DUBLIN*        CLOUDY    53  36  52 W14G28    30.02F
MARION*        PTSUNNY   52  37  57 W22G31    30.05F
HILLSVILLE*    PTSUNNY   49  35  58 W15G33    30.01S
RICHLANDS*     CLOUDY    48  31  52 NW12G20   30.05S
WISE*          PTSUNNY   50  30  46 W13G20    30.10R
ABINGDON*      CLOUDY    54  40  59 W16G24    30.06F
$$

MDZ021>025-VAZ099-100-301800-
SOUTHERN MARYLAND AND THE DELMARVA PENINSULA

CITY           SKY/WX    TMP DP  RH WIND       PRES   REMARKS
PATUXENT RIVER PTSUNNY   56  31  38 SW14G24   29.90F
BAY BRIDGE APT   N/A     52  27  37 SW8       29.89F
LEONARDTOWN    PTSUNNY   54  30  40 W12G20    29.91F
DOVER          PTSUNNY   54  34  46 SW17G24   29.83F
GEORGETOWN     CLOUDY    50  33  52 SW14G22   29.90F
EASTON         MOSUNNY   54  32  43 SW12      29.93F
CAMBRIDGE      CLOUDY    54  34  47 SW7       29.89F
SALISBURY      CLOUDY    50  36  58 SW14G21   29.91F
OCEAN CITY     CLOUDY    48  36  63 W14       29.91F
WALLOPS ISLAND CLOUDY    48  36  63 W15G23    29.92F
ACCOMACK*      CLOUDY    46  36  66 SW16G26   29.93F
$$

NCZ012>017-030>032-301800-
NORTH CENTRAL AND EASTERN NORTH CAROLINA

CITY           SKY/WX    TMP DP  RH WIND       PRES   REMARKS
ROANOKE RAPIDS CLOUDY    45  43  93 SW13      30.02F
RALEIGH        PTSUNNY   48  44  86 W14       30.04F
ELIZABETH CITY RAIN      46  41  82 SW8       30.03F
AHOSKIE*       CLOUDY    43  41  93 SW3       30.03F
EDENTON*       RAIN      46  42  85 SW12      30.05S
CURRITUCK*     RAIN      48  38  68 SW9G17    30.03F
KILL DEVIL HLS DRIZZLE   51  39  63 W14G22    30.02F
MANTEO         CLOUDY    50  39  66 W21G26    30.04F
CAPE HATTERAS  CLOUDY    57  37  47 W21G33    30.05F
TARBORO*       CLOUDY    44  41  89 SW8G16    30.05F
GOLDSBORO      CLOUDY    47  46  99 SW10G17   30.04F
WASHINGTON     LGT RAIN  46  43  90 SW8       30.08S
GREENVILLE     DRIZZLE   45  43  93 W6        30.07F
NEW BERN       RAIN      50  44  80 W6        30.09S
WILMINGTON     CLOUDY    59  42  53 SW17G24   30.08F
$$

VAZ048-301800-
ELSEWHERE

CITY           SKY/WX    TMP DP  RH WIND       PRES   REMARKS
HARRISBURG PA  CLOUDY    51  31  46 NW18G25   29.85S
BALTIMORE      CLOUDY    56  29  35 W17G25    29.87F
ANNAPOLIS      CLOUDY    55  28  35 W10G17    29.89F
ANDREWS AFB    CLOUDY    54  29  38 NW8       29.89S
PHILADELPHIA   CLOUDY    52  27  38 SW14      29.85F
HENDERSON NC   PTSUNNY   50  44  78 SW13      30.00F
GREENSBORO     MOSUNNY   59  42  53 SW8G16    30.00F
ROCKY MOUNT    CLOUDY    45  42  89 SW10      30.04F
$$

VAZ100-301800-
MARINE

STATION/POSITION TIME  TEMP    WIND        PRES    WAVE   SWELL
                       AIR SEA DIR/SP/G            HT/PER HT/PER
                 (UTC) (F)     (DEG/KT/KT) (MB)    (FT/S) (FT/S)
BRANDYWINE LGT   1600   44 40  240/ 19/ 21 1012.3F
CAPE MAY NJ      1600   43 42  240/ 15/ 18 1011.9F
LEWES DE         1600   47 40  250/ 12/ 20 1012.5F
15NM E FENWICK I 1650   40 40              1012.2F   6/ 7
OCEAN-CITY-INLET 1600   44 40  240/ 11/ 14 1013.3F
WACHAPREAGUE VA  1600   45 42  250/ 10/ 15 1014.5F
THOMAS POINT MD  1700                        N/A
COVE POINT MD    1600   49     250/ 14/ 18 1012.7F
SOLOMONS ISLAND  1600      43                N/A
BISHOPS HEAD MD  1600   44 42  220/ 14/ 18 1012.9F
PINEY POINT MD   1606          250/  5/  8   N/A
CAMBRIDGE MD     1600   49 42  220/ 10/ 13 1012.6F
LEWISETTA VA     1600   48 42              1013.1F
RAPPAHANNOCK LGT 1600          220/ 21/ 25 1014.6F
STINGRAY PT      1700   47 44  260/  8/ 10   N/A     2/ 3
YORK RVR RNG VA  1600   45     250/ 18/ 21 1014.6F
YORKTOWN VA      1600   45 45  230/ 16/ 20 1014.6F
DOMINION TERM VA 1600   44     230/ 17/ 20 1015.7F
KIPTOPEKE VA     1600      47  240/ 19/ 23   N/A
CHES BAY BRIDGE  1600   44 41  220/ 19/ 24 1015.3F
CAPE HENRY VA    1600   44     230/ 13/ 22 1014.6F
CHESAPEAKE LGHT  1600   45     250/ 26/ 29 1016.3F
WILLOUBY STN VA  1600   44     230/ 22/ 25 1015.8F
S CRANEY ISL VA  1600          230/ 11/ 18 1016.0F
CAPE HENRY BUOY  1628      40                N/A     3/11   2/11
1ST LANDING BUOY 1700   44     230/ 17/ 21 1014.2F   2/ 3
OFFSHORE WE BUOY 1611      41                N/A     4/ 5   2/10
64NM E OF VA BCH 1650   49 48  240/ 23/ 29 1015.3F   6/ 6   2/ 9
DUCK PIER NC     1600   51 42  240/ 19/ 23 1016.5F
44056 DUCK FRF   1611      42                N/A     2/10   2/11
OREGON INLET NC  1600   51 44  210/ 18/ 21 1017.4F
HATTERAS NC      1600   58 55  240/ 16/ 26 1018.8F
CAPE LOOKOUT NC  1700   57     240/ 13/ 16 1018.4F
$$



USA.gov is the U.S. government's official web portal to all federal, state and local government web resources and services.